Location: Unnamed
(48.6007°N, 2.4808°E)
Time: 05:15:58
(UTC+01:00)

SPROUT - Visible Passes

Search period start: 23 March 2023 00:00
Search period end: 02 April 2023 01:00
Orbit: 566 x 579 km, 98.0° (Epoch: 22 March)

Date Brightness Start Highest point End Pass type
(mag) Time Alt. Az. Time Alt. Az. Time Alt. Az.
27 Mar ? 02:24:49 10° N 02:24:49 10° N 02:24:53 10° N visible
28 Mar ? 02:27:13 11° N 02:27:13 11° N 02:27:24 10° N visible
29 Mar ? 02:29:34 12° N 02:29:34 12° N 02:29:53 10° N visible
30 Mar ? 02:31:52 13° N 02:31:52 13° N 02:32:18 10° N visible
31 Mar ? 02:34:07 13° N 02:34:07 13° N 02:34:40 10° N visible
01 Apr ? 02:36:19 14° N 02:36:19 14° N 02:36:59 10° N visible
